GFSMA_925_thetae_087.txt.gz
Theta_e
341 341 340 340 341 341 336 339 342 344 345 346 345 344 343 340 334 335 335 335 340 341 343 341 340 340 337 337 336 337 336 335 334 334 335 335 334 335 335 334 334 335 340
342 344 341 340 344 341 341 344 344 344 345 345 344 344 344 337 333 332 332 332 334 338 338 336 338 343 336 335 334 334 333 336 338 336 336 337 338 339 341 340 341 341 340
343 343 344 343 342 337 341 343 344 344 344 344 343 344 344 338 336 333 332 332 333 334 336 335 332 332 333 334 333 332 332 334 336 337 338 338 338 337 337 337 337 339 340
346 343 345 343 342 342 342 343 344 343 345 343 343 344 344 343 342 338 335 338 336 335 336 334 334 336 337 338 338 338 338 339 340 341 340 339 338 338 338 338 341 337 337
347 346 345 344 342 342 343 344 345 342 341 344 344 344 344 344 342 343 343 341 340 340 340 338 336 336 338 339 344 338 338 340 341 344 341 340 339 340 340 338 338 336 336
348 350 345 346 345 343 343 345 345 344 342 343 344 342 344 345 342 342 343 343 344 344 344 343 342 340 340 341 343 342 339 337 337 337 338 337 336 337 338 339 336 336 335
348 350 347 348 349 347 348 346 345 343 345 342 342 341 343 345 344 343 342 343 343 344 345 345 345 343 342 342 343 343 343 343 341 338 337 335 334 332 331 333 335 335 333
351 350 348 347 348 347 348 347 346 345 346 342 342 341 336 338 341 342 342 342 343 342 343 343 344 344 343 342 341 342 343 343 343 341 339 338 333 330 327 328 330 334 331
351 350 349 348 347 348 347 347 345 345 341 340 342 342 336 336 338 340 341 342 342 342 341 341 342 343 343 344 344 343 342 342 342 343 342 341 339 334 331 327 326 329 332
351 350 348 349 347 348 348 346 345 345 342 341 345 342 344 344 336 337 340 340 341 342 342 341 343 343 343 344 344 345 345 344 345 345 345 345 343 341 338 334 330 328 330
353 350 350 349 351 348 346 346 348 348 344 346 345 342 341 343 342 339 338 341 343 343 343 342 342 342 342 343 344 344 344 345 345 345 346 346 347 345 344 341 337 334 329
353 352 351 350 349 350 350 348 350 349 348 349 350 346 344 344 343 342 339 340 343 344 344 344 344 344 343 343 344 344 344 344 344 345 344 344 346 346 345 345 343 340 338
354 352 351 350 350 350 350 349 350 350 348 349 350 348 347 351 351 345 342 342 342 343 343 343 345 345 349 349 346 345 345 344 344 345 344 344 345 345 345 345 345 343 342
351 350 353 351 350 349 350 348 350 351 350 347 350 350 349 348 350 351 348 343 338 340 342 342 345 345 348 349 351 351 353 352 352 352 352 351 351 351 349 349 347 345 344
351 350 351 353 351 351 349 351 349 351 349 348 349 348 349 348 347 348 352 348 344 341 339 344 345 349 351 351 351 355 352 354 354 354 353 354 353 353 356 356 355 352 347
349 349 350 353 351 352 349 350 351 350 350 347 349 350 348 347 348 346 349 352 351 347 342 347 351 352 351 355 355 352 357 352 349 346 347 348 353 358 357 355 353 352 352
351 350 349 350 352 352 352 350 348 351 351 349 350 352 352 350 352 353 354 351 350 351 349 351 353 355 356 355 351 356 357 353 351 347 355 356 358 357 355 353 350 348 348
351 352 350 350 349 350 352 352 351 351 352 351 351 351 350 350 351 352 355 354 354 355 355 356 358 356 354 354 355 355 355 352 344 350 354 359 356 357 355 351 344 336 334
345 350 352 352 352 349 351 352 352 350 351 352 351 353 354 354 353 352 351 355 355 354 355 357 357 356 356 356 356 354 353 347 347 351 357 358 356 356 353 348 340 334 335
344 344 349 350 350 351 352 351 351 350 351 351 351 351 350 351 353 354 354 354 354 353 353 355 357 357 357 358 358 356 352 349 351 351 356 357 356 354 352 346 335 337 335
341 342 345 350 353 353 351 350 350 351 351 351 349 350 348 349 349 353 355 355 355 352 353 357 358 358 358 357 355 353 352 350 353 351 354 358 356 353 352 345 333 337 338
339 341 344 346 346 351 352 350 349 350 351 350 349 348 347 347 348 348 350 352 354 355 355 357 356 356 355 354 353 352 350 350 350 351 353 355 355 352 349 339 331 336 337
342 343 341 344 345 345 347 350 352 352 351 351 350 350 349 349 348 347 347 349 350 352 355 356 355 354 353 351 352 352 353 352 352 352 354 356 355 352 346 337 331 334 336
343 342 342 343 345 344 343 350 353 353 353 352 352 351 350 350 350 350 349 349 349 348 348 348 349 348 349 348 351 351 353 352 353 354 355 356 354 350 342 336 330 331 335
344 344 342 340 344 346 347 344 351 355 355 355 353 351 349 350 350 351 353 352 351 349 348 347 347 347 348 349 351 353 353 352 352 355 356 356 354 348 340 333 330 329 333
348 347 346 344 343 343 344 344 344 351 353 353 352 350 350 350 350 353 354 353 353 352 351 349 348 349 349 349 349 352 354 355 353 353 357 357 354 347 337 334 329 328 329

GFSMA_925_thetae_093.txt.gz
Theta_e
346 348 345 348 343 339 338 338 340 345 346 349 348 348 346 344 342 341 343 336 341 342 339 341 342 342 342 341 341 339 336 336 338 337 337 337 338 338 337 342 341 340 340
340 345 343 344 343 340 339 342 343 346 347 346 346 345 343 343 341 340 342 342 335 337 337 337 339 340 343 344 344 341 337 335 336 337 338 338 338 338 341 339 337 339 341
342 343 343 340 344 341 342 343 344 344 347 345 345 345 346 345 343 343 344 343 343 338 335 334 334 335 336 340 343 343 339 337 337 338 339 340 340 342 342 343 339 340 341
345 342 346 345 342 338 343 344 347 347 346 346 347 347 347 345 344 343 344 344 345 345 344 340 336 336 337 339 341 343 342 340 339 339 339 340 340 341 342 343 342 339 338
345 339 346 345 341 342 345 347 347 345 347 346 345 346 347 347 347 344 345 345 346 345 346 345 342 341 340 340 342 343 345 348 345 343 341 340 339 338 336 336 337 342 337
346 344 345 344 342 344 346 348 345 344 345 345 345 345 345 347 347 347 346 346 345 346 346 347 347 347 344 343 342 341 341 342 342 343 343 342 340 339 336 334 333 335 337
346 347 346 343 342 345 346 344 345 343 347 344 346 345 345 345 346 346 346 346 346 346 346 347 346 347 347 344 343 343 343 342 342 342 343 343 343 343 342 341 336 333 331
345 347 346 347 343 347 346 344 343 348 349 343 345 346 344 343 342 342 342 344 345 345 345 346 343 341 342 345 343 343 343 344 344 344 345 345 345 345 345 345 343 339 334
347 348 346 348 346 348 350 347 346 345 347 346 342 347 346 346 345 343 344 344 340 344 344 343 341 341 341 342 343 345 343 343 343 344 344 344 345 345 345 346 346 346 342
347 347 347 347 346 349 347 347 346 347 343 346 347 344 345 346 347 347 346 346 346 345 346 347 346 344 342 344 344 345 347 349 348 348 347 347 346 346 345 345 345 347 346
350 349 350 348 348 349 347 346 345 345 347 348 348 347 346 347 347 348 348 346 348 347 347 345 346 345 349 348 350 351 354 352 352 353 352 352 352 353 352 347 346 353 350
352 350 349 347 348 348 347 348 346 346 348 350 352 349 348 350 349 348 348 348 348 346 346 348 350 351 352 353 354 353 352 354 350 347 343 343 346 349 350 353 352 349 351
353 352 347 349 349 347 349 349 346 348 350 354 353 351 352 353 353 351 350 349 349 347 346 348 349 352 353 356 356 351 357 351 352 345 345 353 356 357 357 356 355 352 351
353 351 349 348 348 348 348 350 352 353 351 352 353 353 354 352 353 353 353 352 351 349 349 350 348 352 354 357 355 355 358 352 345 345 348 355 356 356 356 355 353 349 349
352 350 349 347 349 350 349 349 353 350 351 354 355 351 352 353 352 352 353 352 352 353 351 351 352 353 354 354 355 357 358 349 348 349 351 357 354 356 356 354 349 339 334
346 350 350 349 349 350 351 350 352 351 349 353 353 354 353 353 351 353 353 353 352 353 354 353 352 354 355 354 354 357 356 352 350 350 350 356 355 355 354 352 342 333 335
345 347 350 351 350 351 353 350 351 352 352 355 354 353 354 352 353 353 355 355 355 354 353 351 354 354 357 358 357 356 354 352 351 350 349 355 356 355 353 348 337 335 335
345 345 349 350 351 353 352 349 348 353 354 353 354 355 354 353 355 354 354 356 355 357 356 356 355 355 356 358 359 358 355 351 353 350 348 352 354 354 354 347 334 338 334
345 346 347 347 351 352 353 350 352 355 355 355 354 354 354 355 356 355 357 356 355 356 357 356 355 354 355 356 355 354 354 354 350 350 348 351 352 353 353 344 333 339 335
342 346 345 345 346 350 352 354 353 354 355 355 355 354 353 354 355 355 355 356 357 358 356 356 354 353 353 354 356 352 348 348 350 351 353 352 353 352 353 343 333 338 338
345 342 345 348 350 351 353 353 353 355 354 356 356 355 353 351 348 350 351 351 355 354 353 352 352 351 350 351 352 350 349 349 349 354 353 354 355 348 348 341 334 335 341
348 348 348 346 347 349 348 347 349 355 356 356 356 355 353 350 349 348 347 346 347 353 353 351 350 350 354 353 349 350 351 352 350 353 355 354 356 350 347 343 335 333 337
348 349 349 348 347 343 345 345 345 352 355 356 354 355 355 353 350 351 350 348 348 348 348 350 353 353 353 353 354 355 353 354 353 352 355 356 356 352 349 345 338 332 335
348 348 349 349 349 347 342 336 339 344 352 355 355 354 354 354 354 352 354 354 354 353 352 350 349 351 354 354 355 354 354 354 353 353 357 358 358 354 344 339 340 332 333
348 348 348 349 349 348 346 343 337 344 347 351 352 353 353 352 348 347 351 354 354 352 349 350 348 349 350 350 350 351 352 352 351 352 358 358 360 354 343 339 335 331 333
346 347 347 348 348 349 347 346 344 346 344 344 348 350 350 348 345 343 349 353 353 351 351 351 353 349 347 347 349 349 351 352 351 354 357 358 359 355 351 340 339 331 330

GFSMA_925_thetae_096.txt.gz
Theta_e
347 346 347 345 345 344 346 346 348 349 349 347 347 345 343 342 340 341 342 333 336 338 338 340 338 340 341 340 342 342 342 344 342 342 343 343 343 342 338 339 340 337 339
347 347 347 347 347 346 346 348 350 350 349 346 346 347 346 344 344 345 344 346 336 334 333 334 336 337 340 345 346 345 345 343 340 340 340 340 340 340 342 342 341 338 344
349 348 347 347 347 347 349 349 350 350 346 345 346 346 346 347 346 347 347 346 347 347 339 335 335 335 336 339 341 341 341 340 339 339 339 340 340 342 342 342 342 342 339
352 351 350 348 348 347 348 348 348 348 344 342 344 344 345 346 347 348 347 347 347 346 347 344 341 340 339 340 342 343 345 346 347 344 343 341 340 339 338 336 337 340 341
352 349 350 350 348 348 348 348 348 348 345 344 343 344 346 346 346 345 347 348 348 348 347 348 346 345 344 343 342 341 341 341 341 342 342 343 342 340 339 336 334 335 339
353 349 350 350 348 348 348 349 349 347 345 345 342 344 345 346 346 346 346 346 346 348 348 349 350 349 347 345 343 343 342 342 342 342 343 343 344 344 343 342 340 335 333
349 353 349 350 349 348 349 351 349 348 345 346 344 342 343 344 344 344 344 345 346 347 347 349 351 349 349 349 348 344 343 343 344 344 344 344 345 345 345 345 345 343 336
351 350 351 349 349 349 353 351 351 345 345 346 344 343 343 341 341 341 343 344 345 345 345 347 350 351 352 351 350 346 346 343 343 344 344 344 344 344 345 345 346 346 344
351 351 350 350 350 349 348 352 351 352 345 346 350 348 346 346 343 342 344 344 347 345 346 348 349 350 352 353 352 351 350 351 351 351 351 351 351 350 348 346 346 347 348
352 351 350 350 351 351 350 351 351 350 348 345 347 346 349 350 349 347 344 346 347 347 351 348 348 350 353 352 354 354 353 352 352 349 345 342 342 345 351 353 350 352 352
352 352 351 350 352 351 352 353 354 354 347 347 346 347 349 350 352 348 348 345 346 347 347 349 350 351 353 355 353 353 354 351 350 347 345 347 354 351 352 354 355 353 352
352 353 354 354 356 353 354 354 355 355 354 352 348 347 348 349 349 349 348 347 348 347 347 349 351 352 353 354 355 352 358 352 349 344 345 355 356 356 356 355 354 352 351
351 354 354 351 352 354 356 354 355 354 355 353 353 348 348 350 351 351 350 348 348 348 347 348 348 351 352 354 354 352 358 355 346 347 349 356 354 355 355 354 353 350 346
351 356 351 353 354 353 355 356 354 351 353 353 355 355 350 349 350 351 351 351 350 347 349 352 348 351 352 353 354 353 355 356 348 349 351 356 354 354 355 354 349 338 333
351 356 354 350 351 353 354 355 353 354 354 354 354 356 352 349 349 350 351 350 350 351 350 352 351 352 353 352 354 354 355 353 352 350 349 355 355 354 354 352 342 333 335
353 354 356 355 352 352 353 353 353 355 356 353 351 354 355 349 351 350 350 350 351 350 351 347 350 353 357 355 353 356 354 351 350 350 347 352 354 354 354 348 335 336 334
354 355 357 356 355 354 354 354 354 352 355 353 354 355 354 354 351 349 350 351 351 350 351 348 351 352 356 356 358 358 353 351 348 350 347 349 352 353 353 344 333 336 333
355 354 354 355 357 357 357 355 352 352 354 354 355 354 354 352 356 354 351 352 350 352 352 353 353 353 353 355 357 357 353 349 351 350 349 349 350 352 353 341 334 337 334
352 352 353 355 356 357 357 358 355 353 354 355 355 355 353 353 355 352 354 353 351 353 352 352 353 352 352 352 355 352 352 347 346 347 350 352 353 351 352 341 335 339 339
351 351 352 353 354 356 356 356 356 357 356 354 356 356 354 351 353 355 356 356 356 357 355 354 353 351 349 349 351 349 346 344 346 349 350 353 354 354 349 345 336 338 341
352 352 351 350 351 352 353 356 356 356 357 357 356 357 354 351 349 351 350 350 351 353 353 350 349 347 346 348 349 348 346 346 347 351 352 353 357 358 349 344 338 334 341
354 353 353 351 349 347 346 351 354 355 356 357 356 358 357 354 353 348 347 345 347 352 352 349 344 344 349 350 348 347 349 349 350 346 350 351 359 358 350 344 341 334 336
353 353 354 353 352 351 345 346 349 351 353 355 356 356 356 352 354 355 354 350 348 347 347 351 353 352 351 351 352 355 354 355 354 351 352 354 358 359 350 348 348 337 334
353 353 353 354 353 353 351 348 345 349 351 352 354 355 356 354 352 355 355 355 354 352 353 353 352 353 353 353 355 356 357 357 355 352 354 357 355 361 353 347 349 342 334
353 352 353 353 354 354 352 350 348 347 344 349 351 354 355 355 355 355 354 352 353 351 348 350 348 348 351 350 350 352 351 349 346 344 347 354 354 361 356 353 344 342 335
349 352 352 352 353 354 354 353 350 348 348 343 343 350 352 353 354 354 354 353 353 350 348 348 350 351 352 349 348 349 351 350 346 345 346 355 353 360 359 353 344 339 336

GFSMA_925_thetae_102.txt.gz
Theta_e
346 344 341 345 345 347 348 348 346 349 346 343 344 342 342 343 344 341 330 329 329 328 328 329 331 334 337 338 338 338 338 337 336 335 336 336 336 336 336 341 342 342 338
345 344 346 343 346 349 348 348 344 347 343 345 345 345 345 344 347 345 344 340 338 338 337 336 335 335 336 336 336 335 335 335 335 335 335 335 335 335 335 337 339 342 341
349 346 347 347 346 346 342 349 351 347 347 344 343 346 345 346 346 347 348 347 346 342 341 339 339 339 339 339 339 339 340 340 341 342 342 343 343 342 340 338 335 335 338
350 348 347 348 346 346 346 348 349 346 347 344 344 345 344 345 346 347 346 349 348 351 345 344 341 341 340 338 338 338 339 340 341 341 342 342 343 344 344 344 342 339 334
352 352 350 348 345 349 348 348 342 345 347 344 343 342 342 345 346 347 346 347 347 349 350 348 346 348 347 345 344 344 343 343 343 343 344 344 344 344 345 345 346 344 342
352 350 350 348 348 349 348 345 350 347 345 344 346 343 345 345 344 346 345 348 345 347 350 349 350 352 349 348 350 348 349 349 348 347 347 347 347 347 346 346 346 347 346
352 350 352 342 352 348 350 350 344 345 347 344 347 345 343 342 344 345 345 346 344 347 345 348 352 350 351 352 352 351 352 352 352 351 348 346 346 348 348 349 350 347 347
352 353 350 346 352 351 351 351 351 350 346 343 348 352 354 347 343 343 343 344 344 345 347 348 349 352 353 354 353 354 351 351 350 349 346 346 354 355 354 352 351 353 350
352 353 354 351 349 352 350 350 351 347 350 342 345 350 356 355 345 342 343 344 346 347 349 348 351 352 354 356 356 354 349 352 350 344 345 352 354 354 354 354 353 353 353
352 353 352 355 352 352 349 351 350 350 350 351 343 345 349 351 357 356 345 345 347 349 348 351 350 353 354 356 357 354 354 356 348 344 345 353 353 354 354 353 352 351 350
351 352 353 353 351 349 349 351 349 352 354 352 352 345 345 347 348 355 356 351 350 349 349 350 351 352 354 356 356 353 352 356 352 346 345 350 353 353 353 352 351 343 340
353 352 352 353 354 352 352 354 351 351 354 351 349 352 352 350 352 355 356 353 349 347 347 349 349 350 352 354 356 353 353 355 352 350 346 344 353 353 352 352 340 334 335
353 352 352 353 354 351 351 355 353 352 352 353 356 352 355 347 348 349 353 354 354 350 348 349 348 350 352 353 352 353 354 354 354 351 349 345 349 351 352 348 336 334 334
350 352 353 350 353 354 354 352 354 350 352 345 351 353 351 353 347 349 349 350 356 353 353 354 352 351 354 354 355 353 355 358 353 352 350 347 347 349 352 340 335 333 334
349 353 354 354 355 354 354 352 351 352 351 351 354 353 346 346 350 348 350 350 351 359 356 351 349 355 355 356 354 355 355 354 354 353 349 346 348 350 353 340 335 339 341
352 349 353 355 354 354 354 353 354 353 353 354 350 352 352 349 353 352 347 349 350 351 360 351 351 351 355 351 355 354 356 355 355 349 349 348 351 352 351 341 336 340 344
354 349 341 353 351 353 354 354 353 353 352 351 352 353 355 355 352 354 355 355 351 352 357 354 351 348 349 354 358 353 354 354 351 347 349 348 352 354 352 344 337 339 345
352 355 355 355 354 353 352 354 353 355 353 355 354 352 354 353 354 352 348 348 349 348 347 352 351 355 357 351 355 353 351 352 351 349 347 349 352 355 352 346 338 339 343
354 354 354 355 353 353 354 353 353 349 352 354 354 354 352 353 353 353 354 356 356 357 355 358 358 350 352 353 354 350 350 349 346 345 347 349 351 356 354 351 343 338 341
355 355 356 356 356 355 354 353 356 354 350 353 356 355 354 354 354 353 355 354 353 352 353 354 354 356 355 351 353 348 345 348 348 346 349 351 350 356 355 353 348 340 340
356 355 356 356 356 355 355 354 354 354 354 353 352 352 357 354 354 353 352 354 354 356 356 355 353 349 346 348 347 349 351 352 346 347 352 351 349 351 355 354 353 346 338
357 357 357 357 355 354 349 348 355 352 355 355 354 354 357 357 352 352 350 348 347 347 350 355 353 352 350 351 350 351 351 352 355 357 350 349 353 356 355 355 353 351 344
353 355 355 357 358 356 353 350 347 346 349 353 355 354 354 355 355 353 352 351 346 343 343 343 347 351 351 343 345 352 357 356 356 351 355 356 354 359 359 356 355 352 348
353 353 354 354 355 356 357 356 353 351 348 347 348 352 355 355 354 355 358 358 357 355 354 352 348 344 345 348 349 350 355 358 358 359 352 360 353 357 360 360 357 355 353
343 348 352 354 354 354 356 356 357 355 353 352 347 349 352 354 356 358 357 355 357 361 360 357 354 353 352 350 351 354 355 353 352 349 349 347 344 350 361 360 359 356 353
336 340 343 349 351 354 355 354 354 354 356 355 354 352 350 348 349 349 356 359 358 356 356 357 356 351 351 351 350 353 352 352 352 352 348 349 350 346 351 360 359 357 353

GFSMA_925_thetae_105.txt.gz
Theta_e
345 347 347 346 347 346 346 343 346 345 343 344 340 341 344 342 340 335 331 330 329 328 329 329 331 332 334 335 334 333 333 334 335 336 336 336 337 337 336 339 342 344 341
345 345 344 347 348 348 348 343 344 345 345 341 343 344 343 346 346 344 341 338 336 336 336 336 335 335 335 336 336 336 337 339 340 341 342 342 342 340 338 336 337 340 343
344 346 347 348 348 344 345 347 348 348 348 345 345 344 345 343 345 347 347 346 344 341 339 338 337 336 336 336 336 337 339 339 340 341 341 342 342 343 343 343 341 337 337
346 346 348 346 342 346 346 347 347 344 348 345 345 346 346 344 343 347 346 348 347 348 344 342 345 343 343 343 343 343 343 343 344 344 344 344 344 344 344 344 344 343 340
350 347 348 346 345 348 348 346 343 346 346 343 344 345 345 345 347 346 345 347 346 348 349 346 349 350 348 347 348 349 349 349 349 350 349 349 348 348 348 346 346 345 345
350 350 351 345 349 347 346 346 347 346 346 344 347 343 343 345 345 347 345 346 346 347 348 348 350 352 350 350 351 351 351 351 351 348 346 347 352 353 351 348 349 347 346
347 348 347 345 349 347 346 347 348 351 347 345 347 346 342 343 345 345 346 346 345 347 346 347 350 348 351 353 353 353 350 350 350 344 345 352 354 354 354 353 351 351 348
349 349 348 347 350 349 349 351 350 351 349 342 347 353 343 343 344 344 344 346 344 347 346 348 348 351 353 353 353 353 352 351 345 344 346 353 353 353 354 353 352 352 352
353 352 351 349 352 351 349 349 350 349 351 346 345 350 347 348 344 341 342 344 345 348 346 348 350 352 354 356 356 351 354 354 349 345 345 352 352 352 352 353 352 351 351
353 351 354 351 352 352 350 349 353 352 349 354 349 346 347 351 349 344 346 343 346 347 350 350 351 353 355 356 356 352 352 354 352 349 345 347 352 352 352 352 349 344 347
353 349 352 352 351 349 349 351 352 347 351 352 355 352 352 350 349 349 351 350 347 349 349 350 350 352 355 357 355 352 354 354 354 350 349 346 351 352 351 349 337 335 334
351 352 351 350 345 350 348 353 352 347 348 351 354 353 352 350 341 338 351 350 349 350 350 349 348 352 353 353 353 352 355 354 354 351 351 347 348 350 351 339 334 333 335
353 352 352 352 351 349 349 352 353 350 345 349 351 350 351 354 353 345 340 348 352 350 351 349 348 352 353 353 354 353 354 355 356 354 353 346 349 350 347 335 335 334 334
352 352 352 352 350 350 350 351 353 350 350 344 344 345 342 345 353 348 343 349 347 350 350 351 355 354 355 355 352 353 354 352 354 355 351 347 351 352 344 335 338 337 334
348 352 351 352 351 349 352 353 351 350 348 350 347 350 348 346 347 353 350 349 352 349 347 350 351 352 355 350 352 354 353 351 353 354 349 347 352 353 345 337 338 341 339
350 342 349 352 354 354 354 352 352 352 352 353 348 349 350 350 349 350 353 354 354 351 349 351 354 352 347 349 353 355 353 352 352 349 348 347 351 354 348 340 337 343 342
350 336 350 352 353 355 353 354 352 354 353 353 352 354 353 354 355 347 348 349 349 351 352 349 349 350 356 353 350 354 353 351 353 353 348 347 351 355 351 343 337 340 345
352 352 344 346 350 354 353 352 352 350 352 351 351 352 351 353 352 353 354 355 356 356 357 354 354 357 356 350 353 354 355 349 349 347 347 347 350 355 353 346 339 338 343
354 354 352 352 352 352 354 352 353 353 353 354 354 353 352 350 351 351 351 351 351 351 353 352 352 351 351 354 349 346 346 350 348 349 350 347 350 352 355 351 342 338 340
354 353 353 353 355 354 352 354 352 352 354 351 353 354 355 354 355 354 353 352 351 354 354 355 356 355 351 350 348 351 348 347 346 343 352 349 349 349 354 353 349 341 338
356 354 354 354 355 354 353 354 355 352 354 353 349 353 356 356 352 354 355 353 351 352 356 357 358 354 351 344 352 351 342 345 345 345 355 351 351 350 351 353 353 347 341
354 356 355 354 354 356 355 355 353 353 355 354 353 352 350 351 356 356 354 352 350 349 348 348 347 349 348 346 345 343 344 350 355 349 349 351 354 353 356 354 353 352 345
353 354 354 354 356 356 355 354 352 348 353 355 357 355 353 352 351 351 355 356 351 351 349 345 344 342 342 339 340 342 344 349 352 351 352 356 353 352 355 357 355 352 351
347 349 352 353 354 354 355 356 353 353 353 351 347 349 354 354 353 352 353 354 355 355 356 354 352 353 353 350 351 350 349 351 353 354 350 353 342 346 346 357 356 355 353
338 343 344 348 351 353 353 353 354 354 354 355 354 352 350 349 351 352 353 353 355 357 355 355 357 358 357 351 353 354 352 355 354 352 350 350 348 346 349 356 358 357 355
325 328 335 336 341 347 350 352 352 352 353 354 354 355 354 354 352 351 348 350 354 355 358 358 356 354 356 356 353 350 350 352 353 351 348 349 346 346 353 355 358 357 354